User: anonymous   Login
Location: Eastlake (historical)
(39.0077°N, 122.6678°W)
Time: 16:40:10
(UTC+00:00)
Language:

CZ-4B R/B - Orbit

View from above orbital plane
View from above orbital plane
View from above satellite
View from above satellite

Ground track
Ground track

The orbit data is extracted from the following two-line orbital elements,

1 33410U 08053C   21062.82825635  .00000390  00000-0  32778-4 0  9990
2 33410  97.8824  57.8878 0119188 329.3419  30.0875 14.99401722673630
Epoch (UTC): 03 March 2021 19:52:41
Eccentricity: 0.0119188
inclination: 97.8824°
perigee height: 486 km
apogee height: 651 km
right ascension of ascending node: 57.8878°
argument of perigee: 329.3419°
revolutions per day: 14.99401722
mean anomaly at epoch: 30.0875°
orbit number at epoch: 67363

The dashed part of the orbit path shows where the satellite is in the earth's shadow,  

DLR